Погода в Новой Бирючевке

Россия / Ульяновская область     54°23′55″N   48°06′18″E
темп.,
°C
ветер,
м/с
пор.,
м/с
влажн.,
%
обл.,
%
осадки,
мм/ч
давл.,
гПа
погр.,
м
12 апреля, пн
пн1201:00+4ссв4999100 0.1 1033207
04:00+4св51198100 0.1 1034259
07:00+4ссв51098100 0.1 1035322
10:00+5св5109499 0.1 1036324
13:00+9всв5886100 0.0 1035430
16:00+12всв5781100 0.0 1035473
19:00+10всв598870 0.0 1035269
22:00+7всв399665 0.0 1036185
13 апреля, вт
вт1301:00+6в379998 0.0 1036127
04:00+6вюв2499100 0.0 1035106
07:00+6вюв2499100 0.0 1035110
10:00+10юв3487100 0.0 1035167
13:00+16юв465949 0.0 1034675
16:00+17юв464817 0.0 1032863
19:00+14юв346219 0.0 103177
22:00+11ююв336913 0.0 103235
14 апреля, ср
ср1401:00+9ю33635 0.0 103132
04:00+7ю226515 0.0 103114
07:00+7ююв226576 0.0 103113
10:00+12юв35485 0.0 1030262
13:00+15юв46435 0.0 1028690
16:00+16юв56465 0.0 1027831
19:00+14юв34615 0.0 102583
22:00+11юв22695 0.0 102514
15 апреля, чт
чт1501:00+9юв11755 0.0 102410
04:00+8вюв11790 0.0 102310
07:00+8юв11835 0.0 102310
10:00+13юв22692 0.0 1022264
13:00+16юв23604 0.0 1021940
16:00+18юв33514 0.0 10191417
19:00+15юв34610 0.0 101885
22:00+12ююв22640 0.0 101812
16 апреля, пт
пт1601:00+11ю11661 0.0 101710
04:00+9ююз227011 0.0 101610
07:00+9юз227129 0.0 101611
10:00+14зюз33541 0.0 1015283
13:00+18зсз444329 0.0 10141508
16:00+19зсз56355 0.0 10132389
19:00+16ссз5947100 0.0 1013457
22:00+6ссв8147695 0.0 1018755